Kalaeloa, HI

10:50 PM HST on April 27, 2017 (GMT -1000)
Kalaeloa (John Rodgers Field)

Weather History for PHJR - November, 2012

Change the Weather History Date:

Friday, November 9, 2012

  Actual Average (PHHI) Record (PHHI)
Temperature  
Mean Temperature 77 °F -  
Max Temperature 84 °F 77 °F 86 °F (2004)
Min Temperature 70 °F 65 °F 61 °F (2014)
Cooling Degree Days 12    
Growing Degree Days 27 (Base 50)    
Moisture  
Dew Point 63 °F    
Average Humidity 64    
Maximum Humidity 81    
Minimum Humidity 46    
Precipitation  
Precipitation 0.00 in - - ()
Sea Level Pressure  
Sea Level Pressure 30.09 in    
Wind  
Wind Speed 4 mph (ENE)    
Max Wind Speed 10 mph    
Max Gust Speed 25 mph    
Visibility 10 miles    
Events      
Averages and records for this station are not official NWS values.
T = Trace of Precipitation, MM = Missing Value Source: NWS Daily Summary

Daily Weather History Graph

Daily Weather History Graph

Search for Another Location

Airport or City:

Trip Planner

Search our weather history database for the weather conditions in past years. The results will help you decide how hot, cold, wet, or windy it might be!

Date:

Astronomy

Nov. 09, 2012 Rise Set
Actual Time 6:39 AM HST 5:52 PM HST
Civil Twilight 6:16 AM HST 6:15 PM HST
Nautical Twilight 5:50 AM HST 6:42 PM HST
Astronomical Twilight 5:23 AM HST 7:08 PM HST
Moon 2:23 AM HST (11/9) 2:43 PM HST (11/9)
Length of Visible Light 11h 58m
Length of Day
11h 12m
Waning Crescent, 21% of the Moon is Illuminated
Nov 9
Waning Crescent
Nov 13
New
Nov 20
First Quarter
Nov 28
Full
Dec 6
Last Quarter

Hourly Weather History & Observations

Time (HST) Temp. Heat Index Dew Point Humidity Pressure Visibility Wind Dir Wind Speed Gust Speed Precip Events Conditions
12:53 AM 72.0 °F - 64.0 °F 76% 30.12 in 10.0 mi Calm Calm - N/A   Clear
1:53 AM 72.0 °F - 64.0 °F 76% 30.09 in 10.0 mi Calm Calm - N/A   Clear
2:53 AM 72.0 °F - 63.0 °F 73% 30.08 in 10.0 mi Calm Calm - N/A   Clear
3:53 AM 70.0 °F - 63.0 °F 78% 30.06 in 10.0 mi ENE 4.6 mph - N/A   Clear
4:53 AM 72.0 °F - 64.0 °F 76% 30.06 in 10.0 mi ENE 6.9 mph - N/A   Partly Cloudy
5:53 AM 72.0 °F - 64.0 °F 76% 30.09 in 10.0 mi Calm Calm - N/A   Clear
6:53 AM 70.0 °F - 64.0 °F 81% 30.11 in 10.0 mi Calm Calm - N/A   Clear
7:53 AM 75.0 °F - 64.0 °F 69% 30.13 in 10.0 mi Calm Calm - N/A   Partly Cloudy
8:53 AM 79.0 °F - 64.9 °F 62% 30.13 in 10.0 mi NE 8.1 mph - N/A   Partly Cloudy
9:53 AM 81.0 °F 82.5 °F 64.0 °F 56% 30.13 in 10.0 mi Variable 4.6 mph 19.6 mph N/A   Scattered Clouds
10:53 AM 81.0 °F 82.2 °F 63.0 °F 54% 30.12 in 10.0 mi NE 9.2 mph - N/A   Mostly Cloudy
11:53 AM 82.0 °F 83.0 °F 62.1 °F 51% 30.09 in 10.0 mi Variable 6.9 mph 25.3 mph N/A   Mostly Cloudy
12:53 PM 82.9 °F 84.0 °F 63.0 °F 51% 30.06 in 10.0 mi ENE 8.1 mph 24.2 mph N/A   Partly Cloudy
1:53 PM 84.0 °F 84.4 °F 61.0 °F 46% 30.04 in 10.0 mi ENE 10.4 mph 23.0 mph N/A   Partly Cloudy
2:53 PM 82.0 °F 82.7 °F 61.0 °F 49% 30.03 in 10.0 mi ENE 6.9 mph 17.3 mph N/A   Clear
3:53 PM 79.0 °F - 64.0 °F 60% 30.04 in 10.0 mi Variable 4.6 mph 20.7 mph N/A   Mostly Cloudy
4:53 PM 79.0 °F - 62.1 °F 56% 30.05 in 10.0 mi Variable 5.8 mph 18.4 mph N/A   Mostly Cloudy
5:53 PM 77.0 °F - 62.1 °F 60% 30.06 in 10.0 mi Variable 5.8 mph - N/A   Clear
6:53 PM 75.9 °F - 61.0 °F 60% 30.08 in 10.0 mi ENE 8.1 mph - N/A   Clear
7:53 PM 73.9 °F - 61.0 °F 64% 30.11 in 10.0 mi Variable 5.8 mph - N/A   Clear
8:53 PM 73.9 °F - 62.1 °F 66% 30.11 in 10.0 mi Variable 5.8 mph - N/A   Partly Cloudy
9:53 PM 75.0 °F - 62.1 °F 64% 30.11 in 10.0 mi Variable 6.9 mph - N/A   Clear
10:53 PM 73.9 °F - 62.1 °F 66% 30.11 in 10.0 mi ENE 5.8 mph - N/A   Clear
11:53 PM 73.0 °F - 64.0 °F 73% 30.10 in 10.0 mi ENE 6.9 mph - N/A   Scattered Clouds